Baton Rouge, LA

8:15 PM CST on February 27, 2017 (GMT -0600)
Baton Rouge Metro-Ryan

Weather History for KBTR - January, 2012

Change the Weather History Date:

Friday, January 13, 2012

  Actual Average Record
Temperature  
Mean Temperature 40 °F 52 °F  
Max Temperature 50 °F 62 °F 81 °F (1972)
Min Temperature 29 °F 41 °F 11 °F (1918)
Degree Days  
Heating Degree Days 25 14  
Month to date heating degree days 128 182  
Since 1 July heating degree days 739 798  
Cooling Degree Days 0 0  
Month to date cooling degree days 5 3  
Year to date cooling degree days 5 3  
Moisture  
Dew Point 18 °F    
Average Humidity 51    
Maximum Humidity 78    
Minimum Humidity 23    
Precipitation  
Precipitation 0.00 in 0.19 in 1.86 in (1944)
Month to date precipitation 1.11 2.33  
Year to date precipitation 1.11 2.33  
Snow  
Snow 0.00 in - - ()
Month to date snowfall 0.0  
Since 1 July snowfall 0.0  
Snow Depth 0.00 in    
Sea Level Pressure  
Sea Level Pressure 30.29 in    
Wind  
Wind Speed 3 mph (WNW)    
Max Wind Speed 12 mph    
Max Gust Speed 18 mph    
Visibility 10 miles    
Events      
T = Trace of Precipitation, MM = Missing Value Source: NWS Daily Summary

Daily Weather History Graph

Daily Weather History Graph

Search for Another Location

Airport or City:

Trip Planner

Search our weather history database for the weather conditions in past years. The results will help you decide how hot, cold, wet, or windy it might be!

Date:

Astronomy

Jan. 13, 2012 Rise Set
Actual Time 7:02 AM CST 5:23 PM CST
Civil Twilight 6:36 AM CST 5:50 PM CST
Nautical Twilight 6:06 AM CST 6:19 PM CST
Astronomical Twilight 5:37 AM CST 6:48 PM CST
Moon 10:11 PM CST (1/13) 9:39 AM CST (1/13)
Length of Visible Light 11h 13m
Length of Day
10h 21m
Waning Gibbous, 78% of the Moon is Illuminated
Jan 13
Waning Gibbous
Jan 16
Last Quarter
Jan 23
New
Jan 30
First Quarter
Feb 7
Full

Hourly Weather History & Observations

Time (CST) Temp. Windchill Dew Point Humidity Pressure Visibility Wind Dir Wind Speed Gust Speed Precip Events Conditions
12:53 AM 36.0 °F 32.1 °F 16.0 °F 44% 30.23 in 10.0 mi NNW 4.6 mph - N/A   Clear
1:53 AM 34.0 °F 31.0 °F 17.1 °F 50% 30.24 in 10.0 mi NW 3.5 mph - N/A   Clear
2:53 AM 34.0 °F - 16.0 °F 48% 30.25 in 10.0 mi Calm Calm - N/A   Clear
3:53 AM 32.0 °F 28.7 °F 18.0 °F 56% 30.26 in 10.0 mi NW 3.5 mph - N/A   Clear
4:53 AM 30.0 °F 26.5 °F 21.0 °F 69% 30.25 in 10.0 mi NW 3.5 mph - N/A   Clear
5:53 AM 28.9 °F 25.2 °F 21.9 °F 75% 30.27 in 10.0 mi West 3.5 mph - N/A   Clear
6:53 AM 28.9 °F 25.2 °F 21.9 °F 75% 30.29 in 10.0 mi West 3.5 mph - N/A   Clear
7:53 AM 34.0 °F - 26.1 °F 73% 30.30 in 10.0 mi Calm Calm - N/A   Clear
8:53 AM 36.0 °F 32.1 °F 21.9 °F 57% 30.32 in 10.0 mi NW 4.6 mph - N/A   Clear
9:53 AM 42.1 °F 37.1 °F 12.9 °F 31% 30.35 in 10.0 mi North 8.1 mph - N/A   Clear
10:53 AM 44.1 °F 40.1 °F 10.0 °F 25% 30.32 in 10.0 mi NW 6.9 mph - N/A   Clear
11:53 AM 46.0 °F 43.1 °F 12.0 °F 25% 30.29 in 10.0 mi West 5.8 mph - N/A   Clear
12:53 PM 46.0 °F 44.8 °F 12.9 °F 26% 30.27 in 10.0 mi SW 3.5 mph - N/A   Clear
1:53 PM 48.0 °F - 12.9 °F 24% 30.26 in 10.0 mi Variable 5.8 mph - N/A   Clear
2:53 PM 48.9 °F - 12.9 °F 24% 30.25 in 10.0 mi NW 3.5 mph - N/A   Clear
3:53 PM 48.9 °F - 14.0 °F 25% 30.26 in 10.0 mi West 6.9 mph - N/A   Clear
4:53 PM 46.9 °F - 15.1 °F 28% 30.27 in 10.0 mi WNW 3.5 mph - N/A   Clear
5:53 PM 43.0 °F 40.3 °F 15.1 °F 32% 30.29 in 10.0 mi WNW 4.6 mph - N/A   Clear
6:53 PM 42.1 °F 40.2 °F 16.0 °F 35% 30.31 in 10.0 mi WNW 3.5 mph - N/A   Clear
7:53 PM 37.0 °F - 27.0 °F 67% 30.33 in 10.0 mi Calm Calm - N/A   Clear
8:53 PM 35.1 °F - 26.1 °F 70% 30.34 in 10.0 mi Calm Calm - N/A   Clear
9:53 PM 33.1 °F - 25.0 °F 72% 30.34 in 10.0 mi Calm Calm - N/A   Clear
10:53 PM 32.0 °F - 26.1 °F 79% 30.34 in 10.0 mi Calm Calm - N/A   Clear
11:53 PM 30.9 °F - 26.1 °F 82% 30.34 in 10.0 mi Calm Calm - N/A   Clear